Location: Vancouver
(49.2827°N, 123.1207°W)
Time: 23:42:20
(UTC-07:00)

Envisat - Pass Details

Date: 30 May 2024
Orbit: 762 x 764 km, 98.3° (Epoch: 13 June)

Event Time Altitude Azimuth Distance (km) Brightness Sun altitude
Rises 03:28:11 0° 25° (NNE) 3,238 8.2 -12.5°
Reaches altitude 10° 03:31:01 10° 41° (NE) 2,307 7.0 -12.2°
Maximum altitude 03:34:55 22° 91° (E) 1,628 5.1 -11.9°
Drops below altitude 10° 03:38:48 10° 141° (SE) 2,293 5.3 -11.5°
Sets 03:41:35 0° 157° (SSE) 3,214 5.9 -11.3°
